H1 CPF 2 NER 2025 9 9 9 252 01 glonass127 H2 1106403 9127 37869 2025 9 9 0 0 0 2025 9 12 23 45 0 900 1 1 0 0 0 1 H9 10 0 60927 0.00000 0 8728871.633 -17805855.871 -15963963.955 10 0 60927 900.00000 0 8531161.752 -15694597.656 -18134690.813 10 0 60927 1800.00000 0 8497475.343 -13328527.224 -19951001.674 10 0 60927 2700.00000 0 8657885.160 -10767275.292 -21377359.338 10 0 60927 3600.00000 0 9031272.093 -8076704.984 -22385890.620 10 0 60927 4500.00000 0 9624386.538 -5326355.408 -22956939.547 10 0 60927 5400.00000 0 10431443.083 -2586739.719 -23079453.215 10 0 60927 6300.00000 0 11434266.096 73387.768 -22751192.704 10 0 60927 7200.00000 0 12602979.781 2589679.766 -21978765.396 10 0 60927 8100.00000 0 13897212.584 4904647.996 -20777478.971 10 0 60927 9000.00000 0 15267763.700 6969816.366 -19171021.236 10 0 60927 9900.00000 0 16658659.589 8747486.018 -17190973.635 10 0 60927 10800.00000 0 18009511.952 10212040.062 -14876169.726 10 0 60927 11700.00000 0 19258076.091 11350735.851 -12271913.022 10 0 60927 12600.00000 0 20342900.499 12163954.790 -9429071.351 10 0 60927 13500.00000 0 21205955.244 12664902.844 -6403067.146 10 0 60927 14400.00000 0 21795128.340 12878778.248 -3252784.846 10 0 60927 15300.00000 0 22066485.486 12841445.107 -39417.940 10 0 60927 16200.00000 0 21986199.266 12597672.100 3174721.173 10 0 60927 17100.00000 0 21532068.363 12199013.094 6327405.114 10 0 60927 18000.00000 0 20694564.897 11701420.728 9357686.110 10 0 60927 18900.00000 0 19477367.977 11162694.350 12207058.907 10 0 60927 19800.00000 0 17897362.919 10639869.619 14820570.893 10 0 60927 20700.00000 0 15984107.502 10186658.651 17147859.699 10 0 60927 21600.00000 0 13778788.262 9851046.783 19144100.432 10 0 60927 22500.00000 0 11332710.174 9673144.866 20770846.532 10 0 60927 23400.00000 0 8705381.634 9683385.232 21996750.361 10 0 60927 24300.00000 0 5962272.486 9901135.166 22798151.709 10 0 60927 25200.00000 0 3172335.624 10333784.744 23159524.577 10 0 60927 26100.00000 0 405391.966 10976346.741 23073774.738 10 0 60927 27000.00000 0 -2270516.039 11811585.802 22542382.782 10 0 60927 27900.00000 0 -4791695.855 12810672.787 21575389.558 10 0 60927 28800.00000 0 -7101197.369 13934339.064 20191223.215 10 0 60927 29700.00000 0 -9150929.359 15134485.165 18416369.431 10 0 60927 30600.00000 0 -10903413.343 16356179.466 16284888.912 10 0 60927 31500.00000 0 -12333102.278 17539966.099 13837788.874 10 0 60927 32400.00000 0 -13427208.767 18624387.828 11122257.942 10 0 60927 33300.00000 0 -14186007.077 19548619.805 8190776.679 10 0 60927 34200.00000 0 -14622594.738 20255104.341 5100118.807 10 0 60927 35100.00000 0 -14762121.927 20692075.618 1910260.857 10 0 60927 36000.00000 0 -14640519.316 20815866.721 -1316779.550 10 0 60927 36900.00000 0 -14302776.679 20592899.453 -4518154.291 10 0 60927 37800.00000 0 -13800844.150 20001270.063 -7631420.056 10 0 60927 38700.00000 0 -13191244.874 19031860.563 -10595773.062 10 0 60927 39600.00000 0 -12532500.882 17688925.284 -13353257.195 10 0 60927 40500.00000 0 -11882482.722 15990124.689 -15849919.861 10 0 60927 41400.00000 0 -11295797.238 13966002.339 -18036890.650 10 0 60927 42300.00000 0 -10821326.655 11658925.080 -19871359.438 10 0 60927 43200.00000 0 -10500025.727 9121529.949 -21317432.788 10 0 60927 44100.00000 0 -10363072.610 6414742.763 -22346850.274 10 0 60927 45000.00000 0 -10430453.628 3605452.064 -22939545.514 10 0 60927 45900.00000 0 -10710043.093 763936.953 -23084040.354 10 0 60927 46800.00000 0 -11197217.625 -2038842.227 -22777664.384 10 0 60927 47700.00000 0 -11875021.039 -4733975.610 -22026595.963 10 0 60927 48600.00000 0 -12714871.869 -7257242.720 -20845724.824 10 0 60927 49500.00000 0 -13677782.129 -9551547.776 -19258340.248 10 0 60927 50400.00000 0 -14716033.864 -11569049.782 -17295652.462 10 0 60927 51300.00000 0 -15775240.627 -13272899.425 -14996158.415 10 0 60927 52200.00000 0 -16796704.763 -14638512.049 -12404866.129 10 0 60927 53100.00000 0 -17719969.238 -15654326.057 -9572394.691 10 0 60927 54000.00000 0 -18485454.998 -16322018.335 -6553969.180 10 0 60927 54900.00000 0 -19037071.919 -16656171.306 -3408331.607 10 0 60927 55800.00000 0 -19324693.191 -16683409.411 -196590.374 10 0 60927 56700.00000 0 -19306389.527 -16441044.851 3018968.607 10 0 60927 57600.00000 0 -18950330.326 -15975292.588 6176085.738 10 0 60927 58500.00000 0 -18236273.456 -15339132.008 9213723.313 10 0 60927 59400.00000 0 -17156582.903 -14589906.583 12073230.498 10 0 60927 60300.00000 0 -15716733.352 -13786762.866 14699456.499 10 0 60927 61200.00000 0 -13935282.010 -12988035.985 17041792.129 10 0 60927 62100.00000 0 -11843309.710 -12248690.086 19055121.818 10 0 60927 63000.00000 0 -9483354.745 -11617919.261 20700670.007 10 0 60927 63900.00000 0 -6907883.112 -11137007.353 21946727.881 10 0 60927 64800.00000 0 -4177357.212 -10837534.167 22769248.572 10 0 60927 65700.00000 0 -1357980.818 -10740001.354 23152301.069 10 0 60927 66600.00000 0 1480789.032 -10852934.280 23088375.230 10 0 60927 67500.00000 0 4268863.404 -11172497.059 22578532.496 10 0 60927 68400.00000 0 6938170.768 -11682637.360 21632399.088 10 0 60927 69300.00000 0 9425227.487 -12355756.297 20268000.794 10 0 60927 70200.00000 0 11673525.378 -13153877.506 18511440.792 10 0 60927 71100.00000 0 13635639.031 -14030268.997 16396424.464 10 0 60927 72000.00000 0 15274966.075 -14931452.579 13963637.773 10 0 60927 72900.00000 0 16567027.902 -15799519.078 11259988.523 10 0 60927 73800.00000 0 17500275.729 -16574654.169 8337722.565 10 0 60927 74700.00000 0 18076366.747 -17197769.794 5253429.897 10 0 60927 75600.00000 0 18309896.962 -17613130.646 2066958.260 10 0 60927 76500.00000 0 18227599.989 -17770864.182 -1159745.659 10 0 60927 77400.00000 0 17867043.811 -17629246.453 -4363845.028 10 0 60927 78300.00000 0 17274879.224 -17156664.571 -7482847.598 10 0 60927 79200.00000 0 16504713.382 -16333169.656 -10455841.071 10 0 60927 80100.00000 0 15614698.547 -15151551.145 -13224703.154 10 0 60927 81000.00000 0 14664939.063 -13617883.574 -15735260.548 10 0 60927 81900.00000 0 13714827.960 -11751519.638 -17938371.919 10 0 60927 82800.00000 0 12820428.049 -9584527.311 -19790911.365 10 0 60927 83700.00000 0 12032010.695 -7160592.955 -21256631.154 10 0 60927 84600.00000 0 11391858.661 -4533435.688 -22306885.176 10 0 60927 85500.00000 0 10932427.896 -1764799.511 -22921197.778 10 0 60928 0.00000 0 10674947.365 1077891.726 -23087666.230 10 0 60928 900.00000 0 10628516.610 3924118.764 -22803188.851 10 0 60928 1800.00000 0 10789739.335 6702977.518 -22073514.637 10 0 60928 2700.00000 0 11142907.100 9345906.326 -20913114.606 10 0 60928 3600.00000 0 11660724.148 11789311.242 -19344878.292 10 0 60928 4500.00000 0 12305540.458 13976980.852 -17399643.074 10 0 60928 5400.00000 0 13031038.570 15862189.915 -15115567.245 10 0 60928 6300.00000 0 13784300.478 17409405.133 -12537360.940 10 0 60928 7200.00000 0 14508164.992 18595523.776 -9715391.779 10 0 60928 8100.00000 0 15143774.149 19410596.099 -6704684.479 10 0 60928 9000.00000 0 15633199.826 19858004.631 -3563835.424 10 0 60928 9900.00000 0 15922039.049 19954096.419 -353864.623 10 0 60928 10800.00000 0 15961868.595 19727287.256 2862971.814 10 0 60928 11700.00000 0 15712456.148 19216678.799 6024385.265 10 0 60928 12600.00000 0 15143636.143 18470249.329 9069251.088 10 0 60928 13500.00000 0 14236773.023 17542696.028 11938775.585 10 0 60928 14400.00000 0 12985752.097 16493020.302 14577612.175 10 0 60928 15300.00000 0 11397457.966 15381957.476 16934906.903 10 0 60928 16200.00000 0 9491721.534 14269357.681 18965255.231 10 0 60928 17100.00000 0 7300738.200 13211626.052 20629553.961 10 0 60928 18000.00000 0 4867981.080 12259327.228 21895734.126 10 0 60928 18900.00000 0 2246653.213 11455052.047 22739362.874 10 0 60928 19800.00000 0 -502259.020 10831633.388 23144104.494 10 0 60928 20700.00000 0 -3312253.241 10410783.921 23102032.855 10 0 60928 21600.00000 0 -6113808.401 10202211.587 22613789.743 10 0 60928 22500.00000 0 -8837011.973 10203249.404 21688585.814 10 0 60928 23400.00000 0 -11414211.391 10399015.714 20344043.108 10 0 60928 24300.00000 0 -13782582.594 10763099.513 18605880.477 10 0 60928 25200.00000 0 -15886511.257 11258744.233 16507445.764 10 0 60928 26100.00000 0 -17679688.969 11840482.731 14089101.150 10 0 60928 27000.00000 0 -19126837.441 12456157.359 11397470.867 10 0 60928 27900.00000 0 -20204988.272 13049242.357 8484563.184 10 0 60928 28800.00000 0 -20904263.407 13561372.420 5406781.478 10 0 60928 29700.00000 0 -21228121.723 13934971.578 2223841.851 10 0 60928 30600.00000 0 -21193059.263 14115871.213 -1002382.698 10 0 60928 31500.00000 0 -20827773.641 14055805.324 -4209069.257 10 0 60928 32400.00000 0 -20171826.104 13714675.356 -7333679.139 10 0 60928 33300.00000 0 -19273856.567 13062485.843 -10315193.885 10 0 60928 34200.00000 0 -18189426.633 12080865.590 -13095327.209 10 0 60928 35100.00000 0 -16978582.177 10764106.500 -15619687.087 10 0 60928 36000.00000 0 -15703239.681 9119672.736 -17838862.986 10 0 60928 36900.00000 0 -14424508.604 7168155.809 -19709414.666 10 0 60928 37800.00000 0 -13200065.019 4942675.187 -21194741.205 10 0 60928 38700.00000 0 -12081689.682 2487748.174 -22265811.568 10 0 60928 39600.00000 0 -11113076.481 -142324.016 -22901741.224 10 0 60928 40500.00000 0 -10328005.237 -2885486.146 -23090202.873 10 0 60928 41400.00000 0 -9748956.791 -5674288.936 -22827663.137 10 0 60928 42300.00000 0 -9386228.832 -8438479.168 -22119440.984 10 0 60928 43200.00000 0 -9237588.911 -11107710.271 -20979587.589 10 0 60928 44100.00000 0 -9288477.704 -13614258.965 -19430591.258 10 0 60928 45000.00000 0 -9512751.731 -15895633.642 -17502914.708 10 0 60928 45900.00000 0 -9873931.502 -17896965.362 -15234375.507 10 0 60928 46800.00000 0 -10326899.600 -19573082.140 -12669383.622 10 0 60928 47700.00000 0 -10819974.179 -20890181.174 -9858052.813 10 0 60928 48600.00000 0 -11297267.882 -21827031.217 -6855205.001 10 0 60928 49500.00000 0 -11701230.581 -22375657.593 -3719288.513 10 0 60928 50400.00000 0 -11975267.283 -22541484.382 -511232.584 10 0 60928 51300.00000 0 -12066320.147 -22342931.264 2706738.786 10 0 60928 52200.00000 0 -11927305.889 -21810485.225 5872310.206 10 0 60928 53100.00000 0 -11519306.644 -20985288.976 8924272.290 10 0 60928 54000.00000 0 -10813423.385 -19917307.541 11803690.606 10 0 60928 54900.00000 0 -9792215.490 -18663151.240 14455024.822 10 0 60928 55800.00000 0 -8450667.590 -17283646.776 16827178.127 10 0 60928 56700.00000 0 -6796644.394 -15841257.600 18874458.763 10 0 60928 57600.00000 0 -4850815.133 -14397460.116 20557437.410 10 0 60928 58500.00000 0 -2646050.759 -13010183.419 21843686.204 10 0 60928 59400.00000 0 -226318.076 -11731417.083 22708387.280 10 0 60928 60300.00000 0 2354884.939 -10605084.379 23134800.881 10 0 60928 61200.00000 0 5036490.131 -9665267.406 23114585.222 10 0 60928 62100.00000 0 7752138.186 -8934856.420 22647962.483 10 0 60928 63000.00000 0 10432684.573 -8424678.690 21743727.501 10 0 60928 63900.00000 0 13008831.856 -8133143.038 20419098.037 10 0 60928 64800.00000 0 15413782.305 -8046415.572 18699407.817 10 0 60928 65700.00000 0 17585803.174 -8139120.661 16617646.057 10 0 60928 66600.00000 0 19470599.677 -8375539.721 14213849.773 10 0 60928 67500.00000 0 21023397.612 -8711259.717 11534357.915 10 0 60928 68400.00000 0 22210648.557 -9095204.280 8630939.126 10 0 60928 69300.00000 0 23011285.189 -9471963.670 5559807.774 10 0 60928 70200.00000 0 23417472.400 -9784326.491 2380545.629 10 0 60928 71100.00000 0 23434820.407 -9975906.467 -845050.935 10 0 60928 72000.00000 0 23082048.546 -9993752.532 -4054176.025 10 0 60928 72900.00000 0 22390111.740 -9790830.081 -7184247.651 10 0 60928 73800.00000 0 21400824.754 -9328265.832 -10174144.267 10 0 60928 74700.00000 0 20165041.310 -8577258.085 -12965418.513 10 0 60928 75600.00000 0 18740464.698 -7520568.056 -15503462.335 10 0 60928 76500.00000 0 17189182.931 -6153525.664 -17738598.431 10 0 60928 77400.00000 0 15575033.819 -4484504.069 -19627074.362 10 0 60928 78300.00000 0 13960912.946 -2534840.239 -21131937.835 10 0 60928 79200.00000 0 12406140.160 -338202.913 -22223774.370 10 0 60928 80100.00000 0 10963997.569 2060566.531 -22881291.661 10 0 60928 81000.00000 0 9679544.448 4607091.929 -23091738.549 10 0 60928 81900.00000 0 8587802.090 7239509.776 -22851150.264 10 0 60928 82800.00000 0 7712385.322 9890839.481 -22164415.520 10 0 60928 83700.00000 0 7064637.725 12491575.940 -21045165.014 10 0 60928 84600.00000 0 6643305.482 14972394.666 -19515484.725 10 0 60928 85500.00000 0 6434761.429 17266855.234 -17605461.158 10 0 60929 0.00000 0 6413767.077 19313989.191 -15352569.398 10 0 60929 900.00000 0 6544737.378 21060665.292 -12800916.448 10 0 60929 1800.00000 0 6783451.663 22463631.137 -10000359.642 10 0 60929 2700.00000 0 7079135.533 23491150.985 -7005515.033 10 0 60929 3600.00000 0 7376823.287 24124170.557 -3874679.579 10 0 60929 4500.00000 0 7619899.153 24356963.985 -668688.274 10 0 60929 5400.00000 0 7752708.862 24197238.690 2550270.497 10 0 60929 6300.00000 0 7723130.928 23665696.991 5719858.008 10 0 60929 7200.00000 0 7484999.564 22795075.725 8778783.383 10 0 60929 8100.00000 0 7000278.085 21628706.620 11667974.433 10 0 60929 9000.00000 0 6240892.724 20218659.366 14331699.737 10 0 60929 9900.00000 0 5190151.306 18623545.993 16718621.921 10 0 60929 10800.00000 0 3843688.665 16906078.234 18782763.909 10 0 60929 11700.00000 0 2209900.178 15130478.897 20484371.790 10 0 60929 12600.00000 0 309845.647 13359853.536 21790659.933 10 0 60929 13500.00000 0 -1823372.926 11653629.684 22676426.186 10 0 60929 14400.00000 0 -4145735.078 10065167.743 23124527.065 10 0 60929 15300.00000 0 -6603882.539 8639640.491 23126205.001 10 0 60929 16200.00000 0 -9137093.946 7412267.288 22681261.962 10 0 60929 17100.00000 0 -11679574.940 6406974.829 21798075.876 10 0 60929 18000.00000 0 -14162972.001 5635539.424 20493458.627 10 0 60929 18900.00000 0 -16519008.943 5097246.466 18792356.725 10 0 60929 19800.00000 0 -18682139.389 4779082.078 16727398.215 10 0 60929 20700.00000 0 -20592106.936 4656450.336 14338292.024 10 0 60929 21600.00000 0 -22196307.582 4694387.832 11671088.618 10 0 60929 22500.00000 0 -23451855.985 4849226.609 8777313.631 10 0 60929 23400.00000 0 -24327268.366 5070637.322 5712989.001 10 0 60929 24300.00000 0 -24803689.898 5303967.878 2537558.792 10 0 60929 25200.00000 0 -24875612.840 5492779.489 -687260.482 10 0 60929 26100.00000 0 -24551052.614 5581472.646 -3898682.986 10 0 60929 27000.00000 0 -23851171.890 5517890.739 -7034086.237 10 0 60929 27900.00000 0 -22809366.260 5255788.962 -10032248.169 10 0 60929 28800.00000 0 -21469848.437 4757061.140 -12834562.638 10 0 60929 29700.00000 0 -19885789.838 3993626.858 -15386207.553 10 0 60929 30600.00000 0 -18117097.885 2948895.567 -17637240.489 10 0 60929 31500.00000 0 -16227923.556 1618742.358 -19543598.044 10 0 60929 32400.00000 0 -14284005.624 11951.256 -21067977.355 10 0 60929 33300.00000 0 -12349965.228 -1849895.012 -22180580.817 10 0 60929 34200.00000 0 -10486666.605 -3933075.674 -22859708.188 10 0 60929 35100.00000 0 -8748756.717 -6192915.920 -23092183.819 10 0 60929 36000.00000 0 -7182488.448 -8575444.481 -22873610.473 10 0 60929 36900.00000 0 -5823919.471 -11019454.496 -22208445.149 10 0 60929 37800.00000 0 -4697562.165 -13458880.097 -21109896.252 10 0 60929 38700.00000 0 -3815540.168 -15825387.819 -19599645.331 10 0 60929 39600.00000 0 -3177285.012 -18051072.949 -17707400.354 10 0 60929 40500.00000 0 -2769782.890 -20071146.937 -15470290.990 10 0 60929 41400.00000 0 -2568357.920 -21826502.844 -12932119.514 10 0 60929 42300.00000 0 -2537955.462 -23266051.535 -10142483.852 10 0 60929 43200.00000 0 -2634867.952 -24348731.644 -7155791.626 10 0 60929 44100.00000 0 -2808827.344 -25045110.732 -4030185.957 10 0 60929 45000.00000 0 -3005373.281 -25338512.716 -826405.262 10 0 60929 45900.00000 0 -3168395.215 -25225627.028 2393399.892 10 0 60929 46800.00000 0 -3242740.145 -24716576.842 5566869.506 10 0 60929 47700.00000 0 -3176775.787 -23834446.360 8632633.145 10 0 60929 48600.00000 0 -2924801.663 -22614289.460 11531482.685 10 0 60929 49500.00000 0 -2449207.712 -21101663.113 14207497.292 10 0 60929 50400.00000 0 -1722291.070 -19350748.051 16609100.562 10 0 60929 51300.00000 0 -727656.270 -17422135.447 18690031.461 10 0 60929 52200.00000 0 538858.602 -15380371.277 20410212.619 10 0 60929 53100.00000 0 2068767.762 -13291359.230 21736501.537 10 0 60929 54000.00000 0 3841052.858 -11219728.111 22643312.400 10 0 60929 54900.00000 0 5822803.384 -9226270.661 23113098.326 10 0 60929 55800.00000 0 7970357.332 -7365557.546 23136686.026 10 0 60929 56700.00000 0 10230897.087 -5683823.109 22713457.040 10 0 60929 57600.00000 0 12544437.242 -4217208.632 21851371.912 10 0 60929 58500.00000 0 14846125.071 -2990434.724 20566835.932 10 0 60929 59400.00000 0 17068761.417 -2015957.373 18884407.442 10 0 60929 60300.00000 0 19145440.219 -1293643.007 16836352.143 10 0 60929 61200.00000 0 21012199.226 -810976.989 14462049.445 10 0 60929 62100.00000 0 22610572.991 -543798.266 11807259.644 10 0 60929 63000.00000 0 23889942.167 -457531.160 8923263.415 10 0 60929 63900.00000 0 24809580.373 -508864.319 5865888.020 10 0 60929 64800.00000 0 25340311.492 -647807.665 2694437.321 10 0 60929 65700.00000 0 25465705.666 -820041.535 -529454.751 10 0 60929 66600.00000 0 25182761.044 -969458.950 -3743025.282 10 0 60929 67500.00000 0 24502039.761 -1040792.761 -6883614.213 10 0 60929 68400.00000 0 23447249.713 -982214.884 -9889901.808 10 0 60929 69300.00000 0 22054287.542 -747795.081 -12703125.844 10 0 60929 70200.00000 0 20369781.625 -299712.204 -15268252.664 10 0 60929 71100.00000 0 18449195.764 389879.095 -17535076.924 10 0 60929 72000.00000 0 16354573.619 1337408.516 -19459226.191 10 0 60929 72900.00000 0 14152019.727 2546941.086 -21003048.676 10 0 60929 73800.00000 0 11909024.526 4009761.642 -22136365.024 10 0 60929 74700.00000 0 9691747.615 5704512.185 -22837068.158 10 0 60929 75600.00000 0 7562375.085 7597877.411 -23091558.729 10 0 60929 76500.00000 0 5576663.291 9645789.842 -22895007.499 10 0 60929 77400.00000 0 3781773.026 11795103.439 -22251439.840 10 0 60929 78300.00000 0 2214485.031 13985664.377 -21173641.545 10 0 60929 79200.00000 0 899870.912 16152690.758 -19682888.981 10 0 60929 80100.00000 0 -149526.404 18229359.923 -17808510.371 10 0 60929 81000.00000 0 -933970.800 20149493.554 -15587288.533 10 0 60929 81900.00000 0 -1466261.127 21850227.072 -13062718.526 10 0 60929 82800.00000 0 -1770924.381 23274550.922 -10284136.574 10 0 60929 83700.00000 0 -1882911.569 24373617.501 -7305739.034 10 0 60929 84600.00000 0 -1845854.726 25108717.959 -4185512.071 10 0 60929 85500.00000 0 -1709961.698 25452847.540 -984094.198 10 0 60930 0.00000 0 -1529639.949 25391796.091 2236404.986 10 0 60930 900.00000 0 -1360951.175 24924720.387 5413608.236 10 0 60930 1800.00000 0 -1259005.131 24064177.071 8486068.634 10 0 60930 2700.00000 0 -1275402.125 22835617.207 11394445.295 10 0 60930 3600.00000 0 -1455831.380 21276365.552 14082630.914 10 0 60930 4500.00000 0 -1837924.897 19434128.637 16498812.691 10 0 60930 5400.00000 0 -2449455.468 17365094.460 18596447.932 10 0 60930 6300.00000 0 -3306952.945 15131702.637 20335137.754 10 0 60930 7200.00000 0 -4414795.526 12800176.676 21681384.349 10 0 60930 8100.00000 0 -5764813.488 10437918.983 22609219.392 10 0 60930 9000.00000 0 -7336422.129 8110874.326 23100693.324 10 0 60930 9900.00000 0 -9097279.387 5880968.387 23146217.375 10 0 60930 10800.00000 0 -11004442.684 3803724.928 22744752.387 10 0 60930 11700.00000 0 -13005979.415 1926157.881 21903840.699 10 0 60930 12600.00000 0 -15042967.199 285023.988 20639479.623 10 0 60930 13500.00000 0 -17051803.935 -1094492.688 18975837.380 10 0 60930 14400.00000 0 -18966734.674 -2199610.058 16944814.828 10 0 60930 15300.00000 0 -20722492.704 -3030256.178 14585458.894 10 0 60930 16200.00000 0 -22256946.658 -3598842.367 11943236.342 10 0 60930 17100.00000 0 -23513644.036 -3929509.285 9069179.243 10 0 60930 18000.00000 0 -24444144.716 -4056875.851 6018916.390 10 0 60930 18900.00000 0 -25010045.539 -4024342.001 2851607.613 10 0 60930 19800.00000 0 -25184609.021 -3882015.559 -371199.492 10 0 60930 20700.00000 0 -24953925.077 -3684350.140 -3586768.515 10 0 60930 21600.00000 0 -24317553.833 -3487594.144 -6732405.177 10 0 60930 22500.00000 0 -23288619.393 -3347159.886 -9746695.144 10 0 60930 23400.00000 0 -21893347.871 -3315026.167 -12570722.856 10 0 60930 24300.00000 0 -20170066.953 -3437286.935 -15149245.467 10 0 60930 25200.00000 0 -18167707.746 -3751952.881 -17431796.652 10 0 60930 26100.00000 0 -15943871.451 -4287102.277 -19373696.393 10 0 60930 27000.00000 0 -13562542.505 -5059462.371 -20936944.866 10 0 60930 27900.00000 0 -11091545.283 -6073484.004 -22090981.261 10 0 60930 28800.00000 0 -8599852.663 -7320950.612 -22813291.337 10 0 60930 29700.00000 0 -6154861.012 -8781139.418 -23089851.139 10 0 60930 30600.00000 0 -3819747.368 -10421528.576 -22915397.979 10 0 60930 31500.00000 0 -1651020.702 -12199020.222 -22293523.698 10 0 60930 32400.00000 0 303629.688 -14061627.120 -21236589.202 10 0 60930 33300.00000 0 2007098.884 -15950550.640 -19765463.113 10 0 60930 34200.00000 0 3434171.408 -17802561.156 -17909091.158 10 0 60930 35100.00000 0 4572314.077 -19552579.295 -15703906.422 10 0 60930 36000.00000 0 5421926.255 -21136348.286 -13193093.793 10 0 60930 36900.00000 0 5996040.447 -22493084.270 -10425724.843 10 0 60930 37800.00000 0 6319489.571 -23567992.962 -7455781.763 10 0 60930 38700.00000 0 6427579.762 -24314547.371 -4341090.946 10 0 60930 39600.00000 0 6364328.085 -24696431.954 -1142188.331 10 0 60930 40500.00000 0 6180342.417 -24689073.248 2078860.534 10 0 60930 41400.00000 0 5930435.093 -24280694.848 5259662.309 10 0 60930 42300.00000 0 5671072.312 -23472854.790 8338696.266 10 0 60930 43200.00000 0 5457767.220 -22280445.136 11256490.634 10 0 60930 44100.00000 0 5342526.141 -20731155.767 13956753.254 10 0 60930 45000.00000 0 5371454.325 -18864426.306 16387436.299 10 0 60930 45900.00000 0 5582620.348 -16729930.648 18501716.493 10 0 60930 46800.00000 0 6004267.144 -14385657.185 20258874.222 10 0 60930 47700.00000 0 6653443.093 -11895663.658 21625056.836 10 0 60930 48600.00000 0 7535109.366 -9327598.198 22573913.651 10 0 60930 49500.00000 0 8641760.390 -6750086.999 23087092.277 10 0 60930 50400.00000 0 9953573.640 -4230094.197 23154588.012 10 0 60930 51300.00000 0 11439083.753 -1830360.404 22774940.282 10 0 60930 52200.00000 0 13056354.928 392976.767 21955272.274 10 0 60930 53100.00000 0 14754605.444 2392483.844 20711172.168 10 0 60930 54000.00000 0 16476219.681 4131168.889 19066416.731 10 0 60930 54900.00000 0 18159066.930 5583783.876 17052540.479 10 0 60930 55800.00000 0 19739033.120 6737637.948 14708256.192 10 0 60930 56700.00000 0 21152661.998 7592886.999 12078735.271 10 0 60930 57600.00000 0 22339796.780 8162286.226 9214759.179 10 0 60930 58500.00000 0 23246112.031 8470414.381 6171756.054 10 0 60930 59400.00000 0 23825428.944 8552400.617 3008739.342 10 0 60930 60300.00000 0 24041715.111 8452206.021 -212832.180 10 0 60930 61200.00000 0 23870682.194 8220531.336 -3430251.176 10 0 60930 62100.00000 0 23300911.195 7912438.939 -6580791.703 10 0 60930 63000.00000 0 22334454.640 7584790.211 -9602947.311 10 0 60930 63900.00000 0 20986887.111 7293608.138 -12437651.422 10 0 60930 64800.00000 0 19286799.269 7091478.980 -15029454.087 10 0 60930 65700.00000 0 17274754.559 7025105.695 -17327629.847 10 0 60930 66600.00000 0 15001751.305 7133119.740 -19287192.675 10 0 60930 67500.00000 0 12527254.483 7444246.808 -20869796.073 10 0 60930 68400.00000 0 9916880.275 7975906.821 -22044498.915 10 0 60930 69300.00000 0 7239831.671 8733309.522 -22788380.753 10 0 60930 70200.00000 0 4566194.081 9709085.363 -23086993.776 10 0 60930 71100.00000 0 1964205.733 10883467.975 -22934642.356 10 0 60930 72000.00000 0 -502381.510 12225020.429 -22334485.029 10 0 60930 72900.00000 0 -2776739.679 13691873.919 -21298457.700 10 0 60930 73800.00000 0 -4811098.485 15233425.357 -19847020.751 10 0 60930 74700.00000 0 -6568486.775 16792420.738 -18008736.496 10 0 60930 75600.00000 0 -8024010.385 18307334.772 -15819686.960 10 0 60930 76500.00000 0 -9165615.325 19714945.033 -13322745.139 10 0 60930 77400.00000 0 -9994307.429 20952990.914 -10566715.860 10 0 60930 78300.00000 0 -10523822.898 21962804.769 -7605364.736 10 0 60930 79200.00000 0 -10779767.418 22691804.327 -4496355.721 10 0 60930 80100.00000 0 -10798263.822 23095742.071 -1300119.293 10 0 60930 81000.00000 0 -10624168.552 23140618.112 1921325.781 10 0 60930 81900.00000 0 -10308934.832 22804177.842 5105573.755 10 0 60930 82800.00000 0 -9908214.435 22076933.466 8191032.928 10 0 60930 83700.00000 0 -9479300.094 20962668.654 11118103.722 10 0 60930 84600.00000 0 -9078516.335 19478407.128 13830312.102 10 0 60930 85500.00000 0 -8758667.739 17653848.031 16275378.019 99